Back to catalog

ARIANE 44LP DEB

AliveHEO
NORAD 25539·DEBRIS·🇫🇷 France

Launched Dec 11, 1988 from Guiana Space Centre

Loading…

Next Passes (next 24 hours)

TLE

FreshSource: Space-Track

Epoch: Sep 14, 2026, 05:51 UTC

1 25539U 88109F   26257.24390678  .00002316  00000-0  57203-2 0  9992
2 25539   7.1079 271.5067 6810967 329.8717   4.2609  2.78798074263523

Track ARIANE 44LP DEB in real time with AllMySat

Download on the App Store